Regional Weather Roundup
Issued by NWS

Home | Current Version | Previous Version | Text Only | Print | Product List | Glossary On
Versions: 1 2 3 4 5 6 7 8 9 10 11 12 13 14 15 16 17 18 19 20 21 22 23 24 25 26 27 28 29 30 31 32 33 34 35 36 37 38 39 40 41 42 43 44 45 46 47 48 49 50
000
ASUS43 KLMK 182010
RWRKY
KENTUCKY REGIONAL WEATHER ROUNDUP
NATIONAL WEATHER SERVICE LOUISVILLE KY
300 PM EST WED JAN 18 2017

NOTE "FAIR" INDICATES FEW OR NO CLOUDS BELOW 12,000 FEET
WITH NO SIGNIFICANT WEATHER AND/OR OBSTRUCTIONS TO VISIBILITY.

KYZ001>023-026-027-061>063-070>075-182100-
WESTERN AND SOUTH CENTRAL KENTUCKY

CITY           SKY/WX    TMP DP  RH WIND       PRES   REMARKS
PADUCAH        CLOUDY    45  37  73 E3        30.16F
HENDERSON      CLOUDY    43  34  70 SE3       30.17F
OWENSBORO      CLOUDY    43  36  76 VRB3      30.20F
HOPKINSVILLE   CLOUDY    46  40  78 E3        30.17F
BOWLING GREEN  CLOUDY    50  38  63 CALM      30.17F
GLASGOW        MOSUNNY   50  37  62 CALM      30.16F
$$

KYZ024-025-028>034-038-045-046-053-182100-
NORTH CENTRAL KENTUCKY

CITY           SKY/WX    TMP DP  RH WIND       PRES   REMARKS
LOUISVILLE/SDF CLOUDY    44  35  70 W5        30.17F
LOUISVILLE/LOU CLOUDY    44  35  70 W7        30.18F
FORT KNOX      CLOUDY    43  36  75 S5        30.16F
$$

KYZ035>037-039>044-047>052-055>060-089>105-182100-
NORTHEAST KENTUCKY

CITY           SKY/WX    TMP DP  RH WIND       PRES   REMARKS
LEXINGTON      CLOUDY    44  36  73 SW7       30.16F
COVINGTON      CLOUDY    41  36  82 SW8       30.15F
FRANKFORT      CLOUDY    44  35  70 W3        30.16F
$$

KYZ054-064>069-076>088-106>120-182100-
SOUTHEAST KENTUCKY

CITY           SKY/WX    TMP DP  RH WIND       PRES   REMARKS
JACKSON        CLOUDY    44  37  76 CALM      30.14F
LONDON         CLOUDY    49  36  61 VRB3      30.14F
SOMERSET       CLOUDY    46  36  66 CALM      30.17F
MIDDLESBORO    SUNNY     53  39  60 NE7       30.13F
MONTICELLO     CLEAR     50  38  63 VRB6      30.17F
$$





USA.gov is the U.S. government's official web portal to all federal, state and local government web resources and services.